PACCTY-2 Weather Reports


Display with metric or nautical units.
time (UTC)temp
F
wind
direction
speed
MPH
gust
MPH
rain 1hr
in
rain 24hr
in
rain mn
in
humidity
%
barometer
mb
20260906161312 57 0 0.0 0.0 0.00 0.00 0.00 100 1015.8
20260906160811 57 0 0.0 0.0 0.00 0.00 0.00 100 1015.7
20260906160310 57 0 0.0 0.0 0.00 0.00 0.00 100 1015.8
20260906155809 57 0 0.0 0.0 0.00 0.00 0.00 100 1015.8
20260906155308 57 0 0.0 0.0 0.00 0.00 0.00 100 1015.7
20260906154808 57 0 0.0 0.0 0.00 0.00 0.00 96 1015.7
20260906154306 57 0 0.0 0.0 0.00 0.00 0.00 100 1015.6
20260906153805 57 0 0.0 0.0 0.00 0.00 0.00 100 1015.5
20260906153304 57 0 0.0 0.0 0.00 0.00 0.00 96 1015.4
20260906152306 56 0 0.0 0.0 0.00 0.00 0.00 96 1015.4
20260906151300 56 0 0.0 0.0 0.00 0.00 0.00 100 1015.2
20260906150800 56 0 0.0 0.0 0.00 0.00 0.00 97 1015.2
20260906150258 56 0 0.0 0.0 0.00 0.00 0.00 1015.2
20260906145757 56 0 0.0 0.0 0.00 0.00 0.00 100 1015.2
20260906145256 56 0 0.0 0.0 0.00 0.00 0.00 1015.2
20260906144755 56 0 0.0 0.0 0.00 0.00 0.00 100 1015.3
20260906144254 56 0 0.0 0.0 0.00 0.00 0.00 100 1015.2
20260906143753 56 0 0.0 0.0 0.00 0.00 0.00 1015.1
20260906143252 56 0 0.0 0.0 0.00 0.00 0.00 1015.0
20260906141749 56 0 0.0 0.0 0.00 0.00 0.00 1014.8
20260906141248 55 0 0.0 0.0 0.00 0.00 0.00 100 1014.9
20260906140747 56 0 0.0 0.0 0.00 0.00 0.00 100 1014.8
20260906140245 56 0 0.0 0.0 0.00 0.00 0.00 1014.7
20260906135744 56 0 0.0 0.0 0.00 0.00 0.00 1014.7
20260906135244 56 0 0.0 0.0 0.00 0.00 0.00 1014.7
20260906134242 56 0 0.0 0.0 0.00 0.00 0.00 1014.7
20260906133240 56 0 0.0 0.0 0.00 0.00 0.00 100 1014.5
20260906132739 56 0 0.0 0.0 0.00 0.00 0.00 1014.5
20260906132238 56 0 0.0 0.0 0.00 0.00 0.00 1014.6
20260906131936 56 0 0.0 0.0 0.00 0.00 0.00 96 1014.4
20260906131737 56 0 0.0 0.0 0.00 0.00 0.00 1014.6
20260906131236 56 0 0.0 0.0 0.00 0.00 0.00 1014.6
20260906130236 56 0 0.0 0.0 0.00 0.00 0.00 100 1014.6
20260906125232 56 0 0.0 0.0 0.00 0.00 0.00 1014.4
20260906124731 56 0 0.0 0.0 0.00 0.00 0.00 96 1014.4
20260906124230 56 0 0.0 0.0 0.00 0.00 0.00 96 1014.5
20260906123228 56 0 0.0 0.0 0.00 0.00 0.00 96 1014.6
20260906122727 56 0 0.0 0.0 0.00 0.00 0.00 1014.6
20260906122226 56 0 0.0 0.0 0.00 0.00 0.00 1014.7
20260906121725 56 0 0.0 0.0 0.00 0.00 0.00 1014.6
20260906121224 56 0 0.0 0.0 0.00 0.00 0.00 1014.7
20260906120723 56 0 0.0 0.0 0.00 0.00 0.00 1014.6
20260906120222 56 0 0.0 0.0 0.00 0.00 0.00 1014.6
20260906115721 55 0 0.0 0.0 0.00 0.00 0.00 1014.6
20260906115220 55 0 0.0 0.0 0.00 0.00 0.00 1014.5
20260906114719 55 0 0.0 0.0 0.00 0.00 0.00 1014.5
20260906113717 56 0 0.0 0.0 0.00 0.00 0.00 1014.4
20260906112715 55 0 0.0 0.0 0.00 0.00 0.00 1014.5
20260906112214 55 0 0.0 0.0 0.00 0.00 0.00 1014.4
20260906111212 55 0 0.0 0.0 0.00 0.00 0.00 96 1014.5
20260906110711 55 0 0.0 0.0 0.00 0.00 0.00 96 1014.5
20260906110210 55 0 0.0 0.0 0.00 0.00 0.00 96 1014.4
20260906103705 55 0 0.0 0.0 0.00 0.00 0.00 96 1014.5
20260906103204 55 0 0.0 0.0 0.00 0.00 0.00 100 1014.5
20260906102703 55 0 0.0 0.0 0.00 0.00 0.00 96 1014.5
20260906102202 56 0 0.0 0.0 0.00 0.00 0.00 96 1014.5
20260906101200 56 0 0.0 0.0 0.00 0.00 0.00 100 1014.5
20260906100659 56 0 0.0 0.0 0.00 0.00 0.00 96 1014.5
20260906100158 56 0 0.0 0.0 0.00 0.00 0.00 96 1014.5
20260906095657 56 0 0.0 0.0 0.00 0.00 0.00 96 1014.5
20260906095156 56 0 0.0 0.0 0.00 0.00 0.00 96 1014.5
20260906094655 56 0 0.0 0.0 0.00 0.00 0.00 96 1014.5
20260906094154 56 0 0.0 0.0 0.00 0.00 0.00 97 1014.6
20260906093654 56 0 0.0 0.0 0.00 0.00 0.00 100 1014.6
20260906093152 56 0 0.0 0.0 0.00 0.00 0.00 100 1014.6
20260906092651 56 0 0.0 0.0 0.00 0.00 0.00 100 1014.6
20260906091649 56 0 0.0 0.0 0.00 0.00 0.00 99 1014.6
20260906091148 56 0 0.0 0.0 0.00 0.00 0.00 100 1014.7
20260906090146 56 0 0.0 0.0 0.00 0.00 0.00 100 1014.6
20260906083641 56 0 0.0 0.0 0.00 0.00 0.00 100 1014.7
20260906083140 56 0 0.0 0.0 0.00 0.00 0.00 100 1014.8
20260906082138 56 0 0.0 0.0 0.00 0.00 0.00 100 1014.8
20260906081136 56 0 0.0 0.0 0.00 0.00 0.00 100 1014.9
20260906080134 56 0 0.0 0.0 0.00 0.00 0.00 100 1014.7
20260906075633 56 0 0.0 0.0 0.00 0.00 0.00 100 1014.8
20260906075132 56 0 0.0 0.0 0.00 0.00 0.00 100 1014.7
20260906073629 56 0 0.0 0.0 0.00 0.00 0.00 100 1014.8
20260906073128 56 0 0.0 0.0 0.00 0.00 0.00 1014.8
20260906072627 56 0 0.0 0.0 0.00 0.00 0.00 1014.9
20260906072126 56 0 0.0 0.0 0.00 0.00 0.00 1014.8
20260906071625 56 0 0.0 0.0 0.00 0.00 0.00 1014.8
20260906071124 56 0 0.0 0.0 0.00 0.00 0.00 1014.8
20260906070624 56 0 0.0 0.0 0.00 0.00 0.00 1014.9
20260906070122 56 0 0.0 0.0 0.00 0.00 0.00 100 1014.8
20260906065621 56 0 0.0 0.0 0.00 0.00 0.00 100 1014.8
20260906065120 57 0 0.0 0.0 0.00 0.00 0.00 100 1014.9
20260906064619 57 0 0.0 0.0 0.00 0.00 0.00 1014.9
20260906064118 57 0 0.0 0.0 0.00 0.00 0.00 100 1014.9
20260906063617 57 0 0.0 0.0 0.00 0.00 0.00 1015.0
20260906062615 57 0 0.0 0.0 0.00 0.00 0.00 1015.0
20260906062114 57 0 0.0 0.0 0.00 0.00 0.00 1015.0
20260906061613 57 0 0.0 0.0 0.00 0.00 0.00 100 1015.0
20260906061112 57 0 0.0 0.0 0.00 0.00 0.00 1015.1
20260906060611 57 0 0.0 0.0 0.00 0.00 0.00 100 1015.1
20260906055609 57 0 0.0 0.0 0.00 0.00 0.00 100 1015.2
20260906055108 58 0 0.0 0.0 0.00 0.00 0.00 1015.2
20260906054607 58 0 0.0 0.0 0.00 0.00 0.00 100 1015.2
20260906053104 58 0 0.0 0.0 0.00 0.00 0.00 1015.3
20260906052603 58 0 0.0 0.0 0.00 0.00 0.00 1015.2
20260906052102 58 0 0.0 0.0 0.00 0.00 0.00 100 1015.2
20260906051602 58 0 0.0 0.0 0.00 0.00 0.00 100 1015.3
20260906051100 58 0 0.0 0.0 0.00 0.00 0.00 100 1015.3
20260906050600 58 0 0.0 0.0 0.00 0.00 0.00 100 1015.4
20260906050058 58 0 0.0 0.0 0.00 0.00 0.00 100 1015.3
20260906045557 58 0 0.0 0.0 0.00 0.00 0.00 1015.2
20260906045056 58 0 0.0 0.0 0.00 0.00 0.00 100 1015.3
20260906044555 58 0 0.0 0.0 0.00 0.00 0.00 100 1015.3
20260906044054 59 0 0.0 0.0 0.00 0.00 0.00 100 1015.4
20260906043052 59 0 0.0 0.0 0.00 0.00 0.00 1015.3
20260906042551 59 0 0.0 0.0 0.00 0.00 0.00 1015.3
20260906042050 59 0 0.0 0.0 0.00 0.00 0.00 1015.2
20260906041549 59 0 0.0 0.0 0.00 0.00 0.00 1015.2
20260906041048 59 0 0.0 0.0 0.00 0.00 0.00 1015.3
20260906040547 59 0 0.0 0.0 0.00 0.00 0.00 1015.2
20260906035545 59 0 0.0 0.0 0.00 0.00 0.00 1015.2
20260906034043 60 0 0.0 0.0 0.00 0.00 0.00 1015.3
20260906033040 60 0 0.0 0.0 0.00 0.00 0.00 1015.4
20260906032539 60 0 0.0 0.0 0.00 0.00 0.00 100 1015.4
20260906031537 60 0 0.0 0.0 0.00 0.00 0.00 1015.5
20260906031036 60 0 0.0 0.0 0.00 0.00 0.00 1015.5
20260906030535 60 0 0.0 0.0 0.00 0.00 0.00 1015.5
20260906030034 60 0 0.0 0.0 0.00 0.00 0.00 100 1015.5
20260906025533 60 0 0.0 0.0 0.00 0.00 0.00 1015.5
20260906025032 60 0 0.0 0.0 0.00 0.00 0.00 100 1015.4
20260906024531 60 0 0.0 0.0 0.00 0.00 0.00 100 1015.4
20260906024030 60 0 0.0 0.0 0.00 0.00 0.00 1015.3
20260906023529 60 0 0.0 0.0 0.00 0.00 0.00 1015.4
20260906023028 60 0 0.0 0.0 0.00 0.00 0.00 100 1015.3
20260906022527 60 0 0.0 0.0 0.00 0.00 0.00 1015.3
20260906022026 60 0 0.0 0.0 0.00 0.00 0.00 1015.4
20260906020524 60 0 0.0 0.0 0.00 0.00 0.00 1015.4
20260906020022 60 0 0.0 0.0 0.00 0.00 0.00 1015.4
20260906015521 61 0 0.0 0.0 0.00 0.00 0.00 1015.5
20260906014519 60 0 0.0 0.0 0.00 0.00 0.00 1015.7
20260906014018 60 0 0.0 0.0 0.00 0.00 0.00 100 1015.6
20260906013517 61 0 0.0 0.0 0.00 0.00 0.00 1015.5
20260906013016 61 0 0.0 0.0 0.00 0.00 0.00 1015.6
20260906012515 61 0 0.0 0.0 0.00 0.00 0.00 1015.5
20260906011513 61 0 0.0 0.0 0.00 0.00 0.00 1015.4
20260906011012 61 0 0.0 0.0 0.00 0.00 0.00 1015.4
20260906010010 61 0 0.0 0.0 0.00 0.00 0.00 1015.4
20260906005509 61 0 0.0 0.0 0.00 0.00 0.00 1015.4
20260906003505 61 0 0.0 0.0 0.00 0.00 0.00 100 1015.5
20260906003004 61 0 0.0 0.0 0.00 0.00 0.00 100 1015.5
20260906002503 62 0 0.0 0.0 0.00 0.00 0.00 100 1015.6
20260906001501 62 0 0.0 0.0 0.00 0.00 0.00 100 1015.5
20260906001000 62 0 0.0 0.0 0.00 0.00 0.00 100 1015.5
20260905235458 63 0 0.0 0.0 0.00 0.00 0.00 100 1015.3
20260905234455 64 0 0.0 0.0 0.00 0.00 0.00 1015.4
20260905233954 64 0 0.0 0.0 0.00 0.00 0.00 1015.4
20260905233454 64 0 0.0 0.0 0.00 0.00 0.00 100 1015.3
20260905232952 64 0 0.0 0.0 0.00 0.00 0.00 1015.4
20260905232451 64 0 0.0 0.0 0.00 0.00 0.00 1015.4
20260905231950 64 0 0.0 0.0 0.00 0.00 0.00 1015.3
20260905230948 64 0 0.0 0.0 0.00 0.00 0.00 100 1015.4
20260905225946 64 0 0.0 0.0 0.00 0.00 0.00 100 1015.6
20260905225445 64 0 0.0 0.0 0.00 0.00 0.00 100 1015.6
20260905223942 64 0 0.0 0.0 0.00 0.00 0.00 1015.7
20260905223441 64 0 0.0 0.0 0.00 0.00 0.00 100 1015.8
20260905221437 63 0 0.0 0.0 0.00 0.00 0.00 1015.9
20260905220937 63 0 0.0 0.0 0.00 0.00 0.00 1016.0
20260905220435 63 0 0.0 0.0 0.00 0.00 0.00 1016.0
20260905215433 62 0 0.0 0.0 0.00 0.00 0.00 1016.1
20260905214932 63 0 0.0 0.0 0.00 0.00 0.00 1016.1
20260905214431 62 0 0.0 0.0 0.00 0.00 0.00 1016.2
20260905213930 62 0 0.0 0.0 0.00 0.00 0.00 1016.1
20260905212928 63 0 0.0 0.0 0.00 0.00 0.00 1016.2
20260905212427 63 0 0.0 0.0 0.00 0.00 0.00 1016.2
20260905211926 63 0 0.0 0.0 0.00 0.00 0.00 1016.2
20260905211425 63 0 0.0 0.0 0.00 0.00 0.00 1016.3
20260905210423 62 0 0.0 0.0 0.00 0.00 0.00 95 1016.2
20260905205922 62 0 0.0 0.0 0.00 0.00 0.00 1016.2
20260905205421 62 0 0.0 0.0 0.00 0.00 0.00 95 1016.2
20260905204920 61 0 0.0 0.0 0.00 0.00 0.00 1016.3
20260905204419 61 0 0.0 0.0 0.00 0.00 0.00 95 1016.3
20260905203918 61 0 0.0 0.0 0.00 0.00 0.00 94 1016.3
20260905203418 61 0 0.0 0.0 0.00 0.00 0.00 94 1016.3
20260905202916 61 0 0.0 0.0 0.00 0.00 0.00 94 1016.3
20260905202415 61 0 0.0 0.0 0.00 0.00 0.00 95 1016.3
20260905201914 61 0 0.0 0.0 0.00 0.00 0.00 95 1016.3
20260905201413 61 0 0.0 0.0 0.00 0.00 0.00 95 1016.3
20260905200411 61 0 0.0 0.0 0.00 0.00 0.00 95 1016.4
20260905195910 60 0 0.0 0.0 0.00 0.00 0.00 94 1016.4
20260905195409 60 0 0.0 0.0 0.00 0.00 0.00 94 1016.4
20260905194407 61 0 0.0 0.0 0.00 0.00 0.00 94 1016.4
20260905193405 61 0 0.0 0.0 0.00 0.00 0.00 94 1016.5
20260905192403 62 0 0.0 0.0 0.00 0.00 0.00 1016.5
20260905191902 62 0 0.0 0.0 0.00 0.00 0.00 95 1016.5
20260905191401 62 0 0.0 0.0 0.00 0.00 0.00 95 1016.4
20260905190359 62 0 0.0 0.0 0.00 0.00 0.00 1016.4
20260905185858 61 0 0.0 0.0 0.00 0.00 0.00 1016.4
20260905185357 61 0 0.0 0.0 0.00 0.00 0.00 1016.4
20260905184927 61 0 0.0 0.0 0.00 0.00 0.00 1016.4
20260905184856 61 0 0.0 0.0 0.00 0.00 0.00 1016.4
20260905184355 61 0 0.0 0.0 0.00 0.00 0.00 1016.4
20260905183353 61 0 0.0 0.0 0.00 0.00 0.00 1016.3
20260905182852 61 0 0.0 0.0 0.00 0.00 0.00 1016.4
20260905182351 61 0 0.0 0.0 0.00 0.00 0.00 1016.4
20260905181850 61 0 0.0 0.0 0.00 0.00 0.00 1016.3
20260905181349 61 0 0.0 0.0 0.00 0.00 0.00 1016.3
20260905180347 61 0 0.0 0.0 0.00 0.00 0.00 1016.3
20260905175846 61 0 0.0 0.0 0.00 0.00 0.00 1016.4
20260905174844 60 0 0.0 0.0 0.00 0.00 0.00 1016.3
20260905173843 60 0 0.0 0.0 0.00 0.00 0.00 95 1016.3
20260905173341 60 0 0.0 0.0 0.00 0.00 0.00 95 1016.3
20260905172340 60 0 0.0 0.0 0.00 0.00 0.00 95 1016.3
20260905170335 60 0 0.0 0.0 0.00 0.00 0.00 95 1016.2
20260905165834 60 0 0.0 0.0 0.00 0.00 0.00 95 1016.1
20260905165333 60 0 0.0 0.0 0.00 0.00 0.00 95 1016.1
20260905164832 60 0 0.0 0.0 0.00 0.00 0.00 1016.0
20260905164331 60 0 0.0 0.0 0.00 0.00 0.00 1016.0
20260905163830 60 0 0.0 0.0 0.00 0.00 0.00 1016.0